#timestamp,LO_Frequency,Hit,StdDev 
1533798015.6,286046998.4,N
1533798035.5,286046998.6,N
1533798055.3,286046998.6,N
1533798075.1,286046999.1,N
1533798095.9,286046999.1,N
1533798115.7,286046999.3,N
1533798135.6,286046999.4,N
1533798155.4,286046996.6,Y
1533798175.2,286046998.3,P
1533798195.1,286046999.0,P
1533798196.0,286046999.0,P
1533798215.8,286046998.8,Y
1533798235.6,286046999.7,P
1533798255.5,286047000.5,N
1533798275.3,286047000.2,N
1533798295.2,286047000.0,N
1533798315.0,286047000.0,N
1533798315.9,286047000.0,N
1533798335.7,286047000.0,N
1533798355.6,286047000.6,N
1533798375.4,286047000.6,N
1533798395.3,286046999.9,N
1533798415.1,286047002.7,Y
1533798435.8,286046999.8,P
1533798455.7,286047002.7,P
1533798475.5,286047000.1,N
1533798495.4,286047000.1,N
1533798515.2,286047000.0,N
1533798535.0,286047000.1,N
1533798535.9,286047000.1,N
1533798555.8,286046999.7,N
1533798575.6,286047000.2,N
1533798595.5,286046999.8,N
1533798615.3,286046999.9,N
1533798635.1,286046999.8,N
1533798655.9,286047002.5,Y
1533798675.7,286047002.8,P
1533798695.5,286047002.1,N
1533798715.8,286047002.0,N
1533798735.7,286047002.1,N
1533798755.5,286047002.7,Y
1533798775.4,286046998.3,P
1533798795.2,286047000.7,N
1533798815.1,286046998.2,N
1533798816.0,286046998.2,N
1533798835.8,286046999.9,N
1533798855.6,286047000.7,N
1533798875.5,286047001.0,N
1533798895.3,286047000.5,N
1533798915.2,286047000.3,N
1533798935.9,286047002.3,N
1533798955.7,286047000.9,N
1533798975.6,286047000.8,N
1533798995.4,286046998.2,N
1533799015.2,286046998.2,N
1533799035.8,286046998.2,N
1533799055.6,286046998.4,N
1533799075.5,286046998.8,N
1533799095.3,286046999.3,N
1533799115.1,286046999.0,N
1533799135.9,286046997.2,N
1533799155.7,286046996.8,N
1533799175.6,286046997.5,N
1533799195.4,286046997.8,N
1533799215.2,286046997.5,N
1533799235.1,286046997.4,N
1533799236.0,286046997.4,N
1533799255.8,286046997.4,N
1533799275.7,286046997.9,N
1533799295.5,286046995.6,N
1533799315.3,286046995.6,N
1533799335.2,286046996.2,N
1533799355.9,286046995.8,N
1533799375.7,286046993.5,Y
1533799395.6,286046995.8,P
1533799415.4,286046996.2,N
1533799435.3,286046996.4,P
1533799455.1,286046993.5,Y
1533799456.0,286046993.5,P
1533799475.8,286046996.7,N
1533799495.7,286046999.1,N
1533799515.5,286046999.5,N
1533799535.3,286046996.8,N
1533799555.2,286046996.8,N
1533799575.0,286046997.8,N
1533799575.9,286046997.8,N
1533799595.8,286046996.7,N
1533799615.6,286046994.9,Y
1533799635.5,286046998.7,P
1533799655.3,286046999.4,N
1533799675.1,286046996.6,P
1533799695.9,286046999.6,N
1533799715.7,286046999.6,N
1533799735.5,286046997.7,N
1533799755.4,286046996.5,Y
1533799775.2,286046998.9,P
1533799795.1,286046998.9,P
1533799815.7,286046998.2,P
1533799835.6,286046998.6,Y
1533799855.4,286047000.0,P
1533799875.2,286047000.0,N
1533799895.1,286047001.0,N
1533799896.0,286047001.0,N
1533799915.8,286046998.1,N
1533799935.7,286047001.0,N
1533799955.5,286047001.2,N
1533799975.3,286046998.8,N
1533799995.2,286047001.2,N
1533800015.9,286046998.3,N
1533800035.7,286046999.2,N
1533800055.6,286046996.6,N
1533800075.4,286046999.4,N
1533800095.2,286046999.2,N
1533800115.1,286046997.1,N
1533800116.0,286046997.1,N
1533800135.8,286046996.5,N
1533800155.7,286046997.5,N
1533800175.5,286046996.7,N
1533800195.3,286046996.8,N
1533800215.2,286046996.6,N
1533800235.0,286046997.3,N
1533800235.9,286046997.3,N
1533800255.8,286046996.7,N
1533800275.6,286046994.9,Y
1533800295.4,286046998.3,P
1533800315.3,286046998.6,P
1533800335.1,286047001.2,P
1533800355.8,286047001.2,N
1533800375.7,286047001.2,N
1533800395.5,286046998.2,N
1533800415.4,286046998.5,N
1533800435.2,286046998.2,N
1533800455.0,286046998.5,N
1533800455.9,286046998.5,N
1533800475.8,286047001.2,N
1533800495.6,286046998.1,N
1533800515.4,286046998.7,N
1533800535.3,286046998.9,N
1533800555.1,286046999.4,N
1533800575.9,286046998.8,N
1533800595.7,286046999.4,N
1533800615.5,286046999.4,N
1533800635.4,286046996.5,Y
1533800655.2,286046998.2,P
1533800675.0,286046998.6,N
1533800675.9,286046998.6,P
1533800695.8,286046998.3,Y
1533800715.6,286046999.8,P
1533800735.5,286046999.9,N
1533800755.3,286046999.8,N
1533800775.1,286047000.0,N
1533800795.9,286047000.4,N
1533800815.7,286047000.4,N
1533800835.5,286046998.1,Y
1533800855.4,286046998.2,P
1533800875.2,286047000.6,N
1533800895.1,286047000.8,N
1533800896.0,286047000.8,N
1533800915.8,286047000.6,N
1533800935.6,286047001.0,N
1533800955.5,286047000.4,N
1533800975.3,286047000.8,N
1533800995.1,286047001.0,N
1533801015.9,286047000.9,N
1533801035.7,286047001.0,N
1533801055.6,286047000.6,N
1533801075.4,286046999.0,N
1533801095.2,286046996.5,Y
1533801115.1,286046998.8,P
1533801116.0,286046998.8,N
1533801135.6,286046998.9,N
1533801155.5,286046998.7,N
1533801175.3,286046999.0,N
1533801195.2,286046999.5,N
1533801215.9,286046998.4,N
1533801235.7,286046998.3,N
1533801255.6,286046998.9,N
1533801275.4,286046998.9,N
1533801295.2,286046998.7,N
1533801315.1,286046999.6,N
1533801316.0,286046999.6,N
1533801335.8,286046996.9,Y
1533801355.7,286046998.4,P
1533801375.5,286047001.2,P
1533801395.3,286047000.8,N
1533801415.2,286046998.9,N
1533801435.0,286047001.2,N
1533801435.9,286047001.2,N
1533801455.7,286047000.8,N
1533801475.6,286046998.6,N
1533801495.4,286046999.3,N
1533801515.3,286046999.1,N
1533801535.4,286046999.0,N
1533801555.2,286046999.5,N
1533801575.1,286046998.5,N
1533801576.0,286046998.5,N
1533801595.8,286046999.6,N
